| time (UTC) | temp F | wind direction | speed MPH | gust MPH | rain 1hr in | rain 24hr in | rain mn in | humidity % | barometer mb |
| 20260503191552 | 57 | 140 | 0.0 | 3.0 | 0.00 | 0.00 | 0.00 | 81 | 1031.4 |
| 20260503190100 | 58 | 142 | 1.0 | 4.0 | 0.00 | 0.00 | 0.00 | 80 | 1031.3 |
| 20260503184547 | 58 | 123 | 2.0 | 6.0 | 0.00 | 0.00 | 0.00 | 79 | 1031.1 |
| 20260503183058 | 58 | 104 | 2.0 | 4.0 | 0.00 | 0.00 | 0.00 | 79 | 1031.0 |
| 20260503181547 | 58 | 117 | 0.0 | 6.0 | 0.00 | 0.00 | 0.00 | 79 | 1030.9 |
| 20260503180054 | 58 | 112 | 2.0 | 7.0 | 0.00 | 0.00 | 0.00 | 79 | 1030.9 |
| 20260503174545 | 58 | 109 | 3.0 | 6.0 | 0.00 | 0.00 | 0.00 | 79 | 1030.9 |
| 20260503173103 | 58 | 117 | 2.0 | 6.0 | 0.00 | 0.00 | 0.00 | 82 | 1030.7 |
| 20260503171546 | 57 | 115 | 0.0 | 0.0 | 0.00 | 0.00 | 0.00 | 84 | 1030.7 |
| 20260503081511 | 54 | 73 | 0.0 | 0.0 | 0.00 | 0.00 | 0.00 | 85 | 1031.0 |
| 20260503071511 | 54 | 98 | 0.0 | 0.0 | 0.00 | 0.00 | 0.00 | 84 | 1030.5 |
| 20260503054600 | 57 | 98 | 0.0 | 0.0 | 0.00 | 0.00 | 0.00 | 77 | 1030.2 |
| 20260503053100 | 58 | 98 | 0.0 | 0.0 | 0.00 | 0.00 | 0.00 | 76 | 1030.2 |
| 20260503051601 | 59 | 98 | 2.0 | 3.0 | 0.00 | 0.00 | 0.00 | 76 | 1030.1 |
| 20260503050059 | 59 | 100 | 2.0 | 3.0 | 0.00 | 0.00 | 0.00 | 75 | 1030.2 |
| 20260503044559 | 59 | 101 | 2.0 | 4.0 | 0.00 | 0.00 | 0.00 | 75 | 1030.3 |
| 20260503043058 | 60 | 105 | 2.0 | 4.0 | 0.00 | 0.00 | 0.00 | 74 | 1030.2 |
| 20260503041557 | 61 | 103 | 1.0 | 4.0 | 0.00 | 0.00 | 0.00 | 74 | 1030.4 |
| 20260503040055 | 61 | 98 | 1.0 | 4.0 | 0.00 | 0.00 | 0.00 | 73 | 1030.3 |
| 20260503034555 | 62 | 87 | 2.0 | 4.0 | 0.00 | 0.00 | 0.00 | 73 | 1030.3 |
| 20260503033055 | 62 | 89 | 3.0 | 8.0 | 0.00 | 0.00 | 0.00 | 71 | 1030.3 |
| 20260503031553 | 62 | 34 | 4.0 | 8.0 | 0.00 | 0.00 | 0.00 | 69 | 1030.1 |
| 20260503030052 | 62 | 92 | 5.0 | 7.0 | 0.00 | 0.00 | 0.00 | 71 | 1030.2 |
| 20260503024558 | 63 | 86 | 0.0 | 7.0 | 0.00 | 0.00 | 0.00 | 70 | 1030.2 |
| 20260503023050 | 63 | 123 | 3.0 | 8.0 | 0.00 | 0.00 | 0.00 | 70 | 1030.2 |
| 20260503021557 | 63 | 114 | 3.0 | 8.0 | 0.00 | 0.00 | 0.00 | 69 | 1030.3 |
| 20260503020053 | 63 | 87 | 6.0 | 11.0 | 0.00 | 0.00 | 0.00 | 69 | 1030.4 |
| 20260503014617 | 63 | 180 | 4.0 | 11.0 | 0.00 | 0.00 | 0.00 | 69 | 1030.4 |
| 20260503013044 | 63 | 127 | 5.0 | 10.0 | 0.00 | 0.00 | 0.00 | 70 | 1030.6 |
| 20260503011548 | 63 | 109 | 6.0 | 10.0 | 0.00 | 0.00 | 0.00 | 69 | 1030.7 |
| 20260503010050 | 63 | 146 | 5.0 | 9.0 | 0.00 | 0.00 | 0.00 | 71 | 1030.8 |
| 20260503004554 | 63 | 121 | 5.0 | 10.0 | 0.00 | 0.00 | 0.00 | 72 | 1031.1 |
| 20260503003039 | 63 | 99 | 6.0 | 11.0 | 0.00 | 0.00 | 0.00 | 69 | 1031.1 |
| 20260503001539 | 64 | 86 | 5.0 | 9.0 | 0.00 | 0.00 | 0.00 | 74 | 1031.4 |
| 20260503000037 | 63 | 96 | 5.0 | 9.0 | 0.00 | 0.00 | 0.00 | 73 | 1031.6 |
| 20260502234542 | 63 | 107 | 1.0 | 10.0 | 0.00 | 0.00 | 0.00 | 69 | 1031.8 |
| 20260502233034 | 63 | 96 | 7.0 | 10.0 | 0.00 | 0.00 | 0.00 | 72 | 1031.9 |
| 20260502231537 | 63 | 135 | 6.0 | 11.0 | 0.00 | 0.00 | 0.00 | 69 | 1032.0 |
| 20260502230032 | 62 | 67 | 3.0 | 8.0 | 0.00 | 0.00 | 0.00 | 72 | 1032.1 |
| 20260502224530 | 62 | 101 | 4.0 | 8.0 | 0.00 | 0.00 | 0.00 | 72 | 1032.1 |
| 20260502223034 | 62 | 124 | 2.0 | 8.0 | 0.00 | 0.00 | 0.00 | 72 | 1032.3 |
| 20260502221526 | 61 | 111 | 5.0 | 9.0 | 0.00 | 0.00 | 0.00 | 72 | 1032.3 |
| 20260502220026 | 61 | 101 | 3.0 | 10.0 | 0.00 | 0.00 | 0.00 | 76 | 1032.3 |
| 20260502214523 | 60 | 128 | 4.0 | 9.0 | 0.00 | 0.00 | 0.00 | 77 | 1032.3 |
| 20260502213020 | 60 | 169 | 3.0 | 6.0 | 0.00 | 0.00 | 0.00 | 81 | 1032.2 |
| 20260502211533 | 59 | 182 | 2.0 | 5.0 | 0.00 | 0.00 | 0.00 | 82 | 1032.3 |
| 20260502210016 | 58 | 172 | 3.0 | 6.0 | 0.00 | 0.00 | 0.00 | 83 | 1032.3 |
| 20260502204512 | 57 | 175 | 3.0 | 7.0 | 0.00 | 0.00 | 0.00 | 85 | 1032.3 |
| 20260502203011 | 56 | 160 | 0.0 | 3.0 | 0.00 | 0.00 | 0.00 | 87 | 1032.2 |
| 20260502201507 | 55 | 155 | 0.0 | 0.0 | 0.00 | 0.00 | 0.00 | 89 | 1032.1 |
| 20260502200002 | 55 | 148 | 0.0 | 0.0 | 0.00 | 0.00 | 0.00 | 91 | 1032.0 |
| 20260502194501 | 54 | 163 | 0.0 | 0.0 | 0.00 | 0.00 | 0.00 | 92 | 1031.9 |
| 20260502193058 | 53 | 174 | 0.0 | 0.0 | 0.00 | 0.00 | 0.00 | 92 | 1031.7 |